Location: ?????????
(38.5999°N, 22.7695°E)
Time: 09:10:36
(UTC+00:00)

DELTA 2 R/B (1) - Pass Details

Date: 23 May 2024
Orbit: 789 x 801 km, 39.6° (Epoch: 23 June)

Event Time Altitude Azimuth Distance (km) Brightness Sun altitude
Exits shadow 02:06:58 - 283° (WNW) 3,301 6.4 -11.3°
Rises 02:07:01 0° 283° (WNW) 3,285 6.4 -11.3°
Reaches altitude 10° 02:09:31 10° 281° (W) 2,353 5.6 -10.9°
Maximum altitude 02:14:59 62° 201° (SSW) 884 3.6 -10.1°
Drops below altitude 10° 02:20:26 10° 122° (ESE) 2,341 6.3 -9.2°
Sets 02:22:55 0° 119° (ESE) 3,267 7.1 -8.8°
